Regional Weather Roundup
Issued by NWS

Home | Current Version | Previous Version | Text Only | Print | Product List | Glossary Off
Versions: 1 2 3 4 5 6 7 8 9 10 11 12 13 14 15 16 17 18 19 20 21 22 23 24 25 26 27 28 29 30 31 32 33 34 35 36 37 38 39 40 41 42 43 44 45 46 47 48 49 50

000
ASUS43 KIND 190709
RWRIN

WEATHER ROUNDUP FOR INDIANA
NATIONAL WEATHER SERVICE INDIANAPOLIS IN
300 AM EDT THU OCT 19 2017

NOTE: "FAIR" INDICATES FEW OR NO CLOUDS BELOW 12,000 FEET WITH NO
SIGNIFICANT WEATHER AND/OR OBSTRUCTIONS TO VISIBILITY.

* - STATION DOES NOT REPORT WEATHER SUCH AS PRECIPITATION OR FOG.

+ - STATION NOT QUALITY CONTROLLED BY THE NATIONAL WEATHER SERVICE.
    USE DATA WITH CAUTION...ESPECIALLY DEWPOINT AND RELATIVE
    HUMIDITY OBSERVATIONS.

INZ001>003-010>013-019-020-190800-
NORTHWEST INDIANA

CITY           SKY/WX    TMP DP  RH WIND       PRES   REMARKS
GARY /AIRPORT/ CLEAR     57  45  65 S5        30.06S
KNOX *+        CLEAR     52  45  76 S8        30.08F
LA PORTE +     CLEAR     51  45  79 S5        30.09R
MICHIGAN CITY+ CLEAR     54  45  71 S8        30.07S
MONTICELLO +   CLEAR     51  44  76 S7        30.11S
RENSSELAER +   CLEAR     54  43  66 S9        30.10S
VALPARAISO     CLEAR     52  45  77 S5        30.08S

$$

LMZ046-743>745-190800-
SOUTHERN LAKE MICHIGAN

STATION/POSITION TIME  TEMP    WIND        PRES    WAVE
                       AIR SEA DIR/SP/G            HT
                 (UTC) (F)     (DEG/KT/KT) (MB)    (FT)
BURNS HARBOR     0640   58     200/ 14/ 20 1017.9F
MICHIGAN CITY    0640   58     190/ 11/ 14   N/A
5NW MICH CITY    0700   59 58  220/ 16/ 19   N/A     3

$$

INZ004-005-014>016-021>024-190800-
NORTH CENTRAL INDIANA

CITY           SKY/WX    TMP DP  RH WIND       PRES   REMARKS
GOSHEN         CLEAR     54  43  66 SW12      30.09F
LOGANSPORT +   CLEAR     48  43  81 S8        30.13S
PERU/GRISSOM   CLEAR     52  46  79 SW9       30.12F
SOUTH BEND     CLEAR     55  45  68 SW13      30.08F
WARSAW +       CLEAR     55  45  67 SW7       30.10F

$$

INZ006>009-017-018-025>027-190800-
NORTHEAST INDIANA

CITY           SKY/WX    TMP DP  RH WIND       PRES   REMARKS
AUBURN +       CLEAR     52  43  71 S5        30.12S
FORT WAYNE     PTCLDY    46  41  82 SW7       30.13S
HUNTINGTON +   CLEAR     51  45  78 SW5       30.13S
KENDALLVILLE + CLEAR     51  44  78 SW7       30.11S

$$

INZ028-029-035-036-043>045-051>053-190800-
WEST CENTRAL INDIANA

CITY           SKY/WX    TMP DP  RH WIND       PRES   REMARKS
GREENCASTLE +  CLEAR     54  45  71 CALM      30.16F
LAFAYETTE      CLEAR     51  46  83 S3        30.13S
TERRE HAUTE    CLEAR     52  45  77 S5        30.16S

$$

INZ030>032-037>040-046>048-054>057-064-065-190800-
CENTRAL INDIANA

CITY           SKY/WX    TMP DP  RH WIND       PRES   REMARKS
CP ATTERBURY + PTCLDY    41  41 100 CALM      30.19R
FRANKFORT +    CLEAR     51  46  85 CALM      30.15S
GREENWOOD *+   CLEAR     54  47  80 S6        30.17F
INDIANAPOLIS   CLEAR     51  45  79 S7        30.16F
-EAGLE CREEK   CLEAR     51  44  77 CALM      30.16R
KOKOMO +       CLEAR     51  45  79 S7        30.15S
MARION +       CLEAR     48  45  87 S9        30.15S
MT COMFORT *+  CLEAR     48  46  93 S6        30.17S
SHELBYVILLE    CLEAR     50  43  77 S7        30.17S
ZIONSVILLE +   CLEAR     47  44  87 S6        30.16S

$$

INZ033-034-041-042-049-050-058-059-190800-
EAST CENTRAL INDIANA

CITY           SKY/WX    TMP DP  RH WIND       PRES   REMARKS
MUNCIE         CLEAR     55  44  66 SW7       30.16F
RICHMOND +     CLEAR     46  43  87 SW7       30.20R

$$

INZ060-061-067>069-081>083-085>088-190800-
SOUTHWEST INDIANA

CITY           SKY/WX    TMP DP  RH WIND       PRES   REMARKS
EVANSVILLE     CLEAR     50  46  86 CALM      30.20R
HUNTINGBURG +  CLEAR     50  45  83 S3        30.20R
WASHINGTON +   CLEAR     44  43  94 CALM      30.18S

$$

INZ062-063-066-070>080-084-089>092-190800-
SOUTH CENTRAL AND SOUTHEAST INDIANA

CITY           SKY/WX    TMP DP  RH WIND       PRES   REMARKS
BEDFORD +      CLEAR     48  43  81 CALM      30.19R
BLOOMINGTON    CLEAR     46  41  82 SE3       30.18S
MADISON *+     CLEAR     45  43  93 CALM      30.22S
NORTH VERNON + CLEAR     45  41  87 S3        30.21R
SEYMOUR +      CLEAR     46  41  81 CALM      30.20R

$$





USA.gov is the U.S. government's official web portal to all federal, state and local government web resources and services.